Weather History for KY23 - February, 2014

Change the Weather History Date:

Wednesday, February 12, 2014

  Actual Average (KRPD) Record (KRPD)
Temperature  
Mean Temperature 14 °F -  
Max Temperature 19 °F 26 °F 46 °F (2005)
Min Temperature 8 °F 8 °F -23 °F (2000)
Degree Days  
Heating Degree Days 52    
Moisture  
Dew Point 8 °F    
Average Humidity 82    
Maximum Humidity 92    
Minimum Humidity 72    
Precipitation  
Precipitation 0.00 in - - ()
Sea Level Pressure  
Sea Level Pressure 30.02 in    
Wind  
Wind Speed 5 mph (SSE)    
Max Wind Speed 10 mph    
Max Gust Speed -    
Visibility 6 miles    
Events Snow    
Averages and records for this station are not official NWS values.
T = Trace of Precipitation, MM = Missing Value Source: NWS Daily Summary

Daily Weather History Graph

Daily Weather History Graph

Search for Another Location

Airport or City:

Trip Planner

Search our weather history database for the weather conditions in past years. The results will help you decide how hot, cold, wet, or windy it might be!

Date:

Astronomy

Feb. 12, 2014 Rise Set
Actual Time 7:12 AM CST 5:29 PM CST
Civil Twilight 6:41 AM CST 6:00 PM CST
Nautical Twilight 6:07 AM CST 6:35 PM CST
Astronomical Twilight 5:32 AM CST 7:09 PM CST
Moon 3:41 PM CST (2/12) 5:32 AM CST (2/12)
Length of Visible Light 11h 18m
Length of Day
10h 17m
Waxing Gibbous, 95% of the Moon is Illuminated
Feb 12
Waxing Gibbous
Feb 14
Full
Feb 22
Last Quarter
Mar 1
New
Mar 8
First Quarter

Hourly Weather History & Observations

Time (CST) Temp. Windchill Dew Point Humidity Pressure Visibility Wind Dir Wind Speed Gust Speed Precip Events Conditions
12:15 AM 8.4 °F -2.8 °F 4.1 °F 83% 30.08 in 3.0 mi SSE 6.9 mph - N/A Snow Light Snow
12:35 AM 8.6 °F -5.5 °F 3.9 °F 81% 30.08 in 4.0 mi SSE 10.4 mph - N/A Snow Light Snow
12:55 AM 8.6 °F -5.5 °F 4.3 °F 83% 30.08 in 2.5 mi South 10.4 mph - N/A Snow Light Snow
1:15 AM 8.6 °F -3.7 °F 4.1 °F 82% 30.08 in 2.0 mi South 8.1 mph - N/A Snow Light Snow
1:35 AM 8.6 °F -3.7 °F 4.5 °F 83% 30.08 in 2.0 mi SSE 8.1 mph - N/A Snow Light Snow
1:55 AM 8.6 °F -3.7 °F 4.5 °F 83% 30.09 in 2.0 mi South 8.1 mph - N/A   Overcast
2:15 AM 8.6 °F -2.6 °F 4.6 °F 84% 30.08 in 1.8 mi SSE 6.9 mph - N/A Snow Light Snow
2:35 AM 8.6 °F -2.6 °F 5.0 °F 85% 30.08 in 2.0 mi SSE 6.9 mph - N/A Snow Light Snow
2:55 AM 8.6 °F -3.7 °F 4.6 °F 84% 30.07 in 4.0 mi SSE 8.1 mph - N/A Snow Light Snow
3:15 AM 9.1 °F -1.9 °F 4.5 °F 81% 30.07 in 10.0 mi SSE 6.9 mph - N/A Snow Light Snow
3:35 AM 9.1 °F -1.9 °F 4.5 °F 81% 30.07 in 10.0 mi SSE 6.9 mph - N/A   Overcast
3:55 AM 9.3 °F -1.7 °F 4.6 °F 81% 30.06 in 10.0 mi SSE 6.9 mph - N/A   Overcast
4:15 AM 9.5 °F -0.3 °F 4.8 °F 81% 30.06 in 7.0 mi SSE 5.8 mph - N/A Snow Light Snow
4:35 AM 9.3 °F 2.8 °F 5.0 °F 83% 30.07 in 2.5 mi SSE 3.5 mph - N/A Snow Light Snow
4:55 AM 9.1 °F 0.8 °F 5.0 °F 83% 30.07 in 3.0 mi SSE 4.6 mph - N/A Snow Light Snow
5:15 AM 9.1 °F 2.6 °F 5.0 °F 83% 30.07 in 5.0 mi SSE 3.5 mph - N/A Snow Light Snow
5:35 AM 9.3 °F 2.8 °F 5.0 °F 83% 30.07 in 4.0 mi SSE 3.5 mph - N/A Snow Light Snow
5:55 AM 9.3 °F 1.0 °F 5.0 °F 83% 30.07 in 3.0 mi SSE 4.6 mph - N/A Snow Light Snow
6:15 AM 9.3 °F 2.8 °F 5.4 °F 84% 30.07 in 2.5 mi SE 3.5 mph - N/A Snow Light Snow
6:35 AM 9.5 °F 1.2 °F 5.5 °F 84% 30.07 in 3.0 mi SE 4.6 mph - N/A Snow Light Snow
6:55 AM 9.5 °F 3.0 °F 5.5 °F 84% 30.07 in 2.5 mi SE 3.5 mph - N/A Snow Light Snow
7:15 AM 9.5 °F 3.0 °F 5.5 °F 84% 30.07 in 2.0 mi ESE 3.5 mph - N/A Snow Light Snow
7:35 AM 9.5 °F - 5.9 °F 85% 30.08 in 2.5 mi Calm Calm - N/A Snow Light Snow
7:55 AM 9.5 °F - 5.7 °F 85% 30.08 in 4.0 mi Calm Calm - N/A Snow Light Snow
8:15 AM 9.5 °F - 5.9 °F 85% 30.08 in 1.5 mi Calm Calm - N/A Snow Light Snow
8:35 AM 9.5 °F 1.2 °F 5.9 °F 85% 30.07 in 2.5 mi ESE 4.6 mph - N/A Snow Light Snow
8:55 AM 10.2 °F - 6.1 °F 83% 30.08 in 1.5 mi Calm Calm - N/A Snow Light Snow
9:15 AM 10.9 °F - 6.4 °F 82% 30.08 in 1.8 mi Calm Calm - N/A Snow Light Snow
9:35 AM 11.3 °F - 6.6 °F 81% 30.08 in 2.5 mi Calm Calm - N/A Snow Light Snow
9:55 AM 12.0 °F - 6.8 °F 80% 30.08 in 7.0 mi Calm Calm - N/A   Overcast
10:15 AM 12.6 °F - 7.2 °F 79% 30.08 in 5.0 mi Calm Calm - N/A Snow Light Snow
10:35 AM 13.3 °F - 7.7 °F 78% 30.07 in 5.0 mi Calm Calm - N/A Snow Light Snow
10:55 AM 13.6 °F 6.0 °F 7.7 °F 77% 30.07 in 7.0 mi SSE 4.6 mph - N/A   Overcast
11:15 AM 14.2 °F 8.4 °F 8.2 °F 77% 30.07 in 10.0 mi SSW 3.5 mph - N/A   Overcast
11:35 AM 14.9 °F - 8.6 °F 76% 30.07 in 10.0 mi Calm Calm - N/A   Overcast
11:55 AM 15.4 °F - 9.1 °F 76% 30.07 in 5.0 mi Calm Calm - N/A Snow Light Snow
12:15 PM 16.3 °F 10.8 °F 9.7 °F 75% 30.05 in 5.0 mi SSW 3.5 mph - N/A Snow Light Snow
12:35 PM 16.7 °F - 10.2 °F 76% 30.04 in 7.0 mi Calm Calm - N/A Snow Light Snow
12:55 PM 17.1 °F - 10.4 °F 75% 30.04 in 7.0 mi Calm Calm - N/A Snow Light Snow
1:15 PM 17.4 °F 12.1 °F 10.6 °F 75% 30.03 in 7.0 mi SW 3.5 mph - N/A Snow Light Snow
1:35 PM 18.0 °F 12.7 °F 11.1 °F 75% 30.02 in 7.0 mi SW 3.5 mph - N/A Snow Light Snow
1:55 PM 18.0 °F 12.7 °F 11.1 °F 75% 30.02 in 10.0 mi SSW 3.5 mph - N/A   Overcast
2:15 PM 18.3 °F - 11.5 °F 75% 30.02 in 10.0 mi Calm Calm - N/A   Overcast
2:35 PM 18.5 °F 13.3 °F 11.8 °F 75% 30.01 in 10.0 mi SW 3.5 mph - N/A Snow Light Snow
2:55 PM 18.5 °F 10.4 °F 11.5 °F 74% 30.01 in 10.0 mi West 5.8 mph - N/A Snow Light Snow
3:15 PM 19.0 °F 12.3 °F 11.7 °F 73% 30.00 in 10.0 mi WSW 4.6 mph - N/A Snow Light Snow
3:35 PM 19.4 °F 14.3 °F 11.7 °F 72% 30.00 in 10.0 mi SW 3.5 mph - N/A   Mostly Cloudy
3:55 PM 19.0 °F - 11.8 °F 74% 29.99 in 10.0 mi Calm Calm - N/A   Mostly Cloudy
4:15 PM 19.4 °F - 12.0 °F 73% 29.98 in 10.0 mi Calm Calm - N/A   Overcast
4:35 PM 19.0 °F - 11.8 °F 74% 29.98 in 10.0 mi Calm Calm - N/A   Overcast
4:55 PM 18.5 °F 13.3 °F 11.8 °F 75% 29.97 in 10.0 mi South 3.5 mph - N/A   Overcast
5:15 PM 17.4 °F - 11.3 °F 77% 29.97 in 10.0 mi Calm Calm - N/A   Overcast
5:35 PM 16.2 °F - 10.9 °F 80% 29.96 in 10.0 mi Calm Calm - N/A   Overcast
5:55 PM 16.0 °F 10.4 °F 11.1 °F 81% 29.96 in 10.0 mi SE 3.5 mph - N/A   Overcast
6:15 PM 15.4 °F - 10.9 °F 82% 29.96 in 10.0 mi Calm Calm - N/A   Overcast
6:35 PM 15.8 °F 10.2 °F 11.3 °F 82% 29.96 in 10.0 mi SE 3.5 mph - N/A   Overcast
6:55 PM 15.1 °F - 10.9 °F 84% 29.96 in 10.0 mi Calm Calm - N/A   Overcast
7:15 PM 14.7 °F - 10.6 °F 84% 29.95 in 10.0 mi Calm Calm - N/A   Mostly Cloudy
7:35 PM 12.9 °F - 10.0 °F 88% 29.95 in 10.0 mi Calm Calm - N/A   Scattered Clouds
7:55 PM 11.8 °F - 9.3 °F 90% 29.95 in 7.0 mi Calm Calm - N/A   Clear
8:15 PM 11.1 °F - 8.6 °F 90% 29.94 in 7.0 mi Calm Calm - N/A   Clear
8:35 PM 9.5 °F - 7.3 °F 91% 29.95 in 7.0 mi Calm Calm - N/A   Clear
8:55 PM 8.2 °F 1.6 °F 6.3 °F 92% 29.93 in 7.0 mi East 3.5 mph - N/A   Clear
9:15 PM 9.1 °F 2.6 °F 7.0 °F 91% 29.92 in 7.0 mi East 3.5 mph - N/A   Clear
9:35 PM 9.9 °F 1.6 °F 7.5 °F 90% 29.91 in 7.0 mi East 4.6 mph - N/A   Clear
9:55 PM 11.5 °F 3.5 °F 9.0 °F 90% 29.90 in 7.0 mi ESE 4.6 mph - N/A   Clear
10:15 PM 12.0 °F 2.7 °F 9.9 °F 91% 29.89 in 7.0 mi ESE 5.8 mph - N/A   Clear
10:35 PM 12.2 °F 1.7 °F 10.0 °F 91% 29.88 in 7.0 mi ESE 6.9 mph - N/A   Clear
10:55 PM 11.3 °F 1.9 °F 8.8 °F 90% 29.86 in 7.0 mi ESE 5.8 mph - N/A   Clear
11:15 PM 11.7 °F 1.1 °F 9.0 °F 89% 29.85 in 7.0 mi ESE 6.9 mph - N/A   Clear
11:35 PM 11.3 °F 1.9 °F 8.4 °F 88% 29.84 in 7.0 mi ESE 5.8 mph - N/A   Clear
11:55 PM 10.9 °F 4.7 °F 7.9 °F 87% 29.84 in 7.0 mi ESE 3.5 mph - N/A   Clear